STARLINK-2272 (48011 NORAD) Tracking and Keplerian Element Data

This shows tracking and keplerian element data for the satellite.

Feedback or suggestion? Click here.




ElementValue
Catalog48011
NameSTARLINK-2272
Epoch Orbit195
Epoch Day173.91668981
Epoch Year2021
RAAN121.4745
Inclination53.0456
Eccentricity0.0001488
Argument of Perigee64.8968
Mean Anonmoly184.4966
Mean Motion15.06394003
Decay Rate4.7E-07
L11 48011U 21024AL 21173.91668981 .00000047 00000-0 22056-4 0 9995
L22 48011 53.0456 121.4745 0001488 64.8968 184.4966 15.06394003 1959

Live tracking and technical data element details for STARLINK-2272 (NORAD 48011). STARLINK-2272 can be tracked NOW for your location showing map with azimuth and elevation plus other details from your city location.

Track the satellite on the map from your city or location and see movement details for azimuth, elevation, latitude, longitude, range, height, and movement on the map or in text.







IsCatalogInMostPopularTable: catalog: 48011, numindb: 42
Update: records affected: 1



GetName: 48011 STARLINK-2272

Hit Count: updated at: Thu, 24 Jun 2021 03:49:12 GMT